Eagle River, WI

3:49 PM CDT on August 18, 2017 (GMT -0500)
Eagle River Union

Weather History for KEGV - March, 2013

Change the Weather History Date:

Friday, March 15, 2013

  Actual Average Record
Temperature  
Mean Temperature 22 °F -  
Max Temperature 30 °F 33 °F 64 °F (2012)
Min Temperature 14 °F 9 °F -10 °F (1993)
Degree Days  
Heating Degree Days 43    
Moisture  
Dew Point 18 °F    
Average Humidity 72    
Maximum Humidity 93    
Minimum Humidity 51    
Precipitation  
Precipitation 0.00 in - - ()
Sea Level Pressure  
Sea Level Pressure 29.89 in    
Wind  
Wind Speed 9 mph (NNE)    
Max Wind Speed 13 mph    
Max Gust Speed 18 mph    
Visibility 8 miles    
Events Snow    
Averages and records for this station are not official NWS values.
T = Trace of Precipitation, MM = Missing Value Source: NWS Daily Summary

Daily Weather History Graph

Daily Weather History Graph

Search for Another Location

Airport or City:

Trip Planner

Search our weather history database for the weather conditions in past years. The results will help you decide how hot, cold, wet, or windy it might be!

Date:

Astronomy

Mar. 15, 2013 Rise Set
Actual Time 7:09 AM CDT 7:03 PM CDT
Civil Twilight 6:39 AM CDT 7:33 PM CDT
Nautical Twilight 6:04 AM CDT 8:07 PM CDT
Astronomical Twilight 5:29 AM CDT 8:43 PM CDT
Moon 8:45 AM CDT (3/15) 11:32 PM CDT (3/15)
Length of Visible Light 12h 53m
Length of Day
11h 54m
Waxing Crescent, 15% of the Moon is Illuminated
Mar 15
Waxing Crescent
Mar 19
First Quarter
Mar 27
Full
Apr 2
Last Quarter
Apr 10
New

Hourly Weather History & Observations

Time (CDT) Temp. Windchill Dew Point Humidity Pressure Visibility Wind Dir Wind Speed Gust Speed Precip Events Conditions
12:15 AM 30.2 °F 21.3 °F 24.8 °F 80% 29.91 in 10.0 mi West 10.4 mph - N/A   Overcast
12:35 AM 30.2 °F 21.3 °F 24.8 °F 80% 29.91 in 10.0 mi West 10.4 mph - N/A   Overcast
12:55 AM 30.2 °F 21.9 °F 24.8 °F 80% 29.90 in 10.0 mi West 9.2 mph - N/A   Overcast
1:15 AM 30.2 °F 20.8 °F 24.8 °F 80% 29.89 in 10.0 mi West 11.5 mph - N/A   Overcast
1:35 AM 30.2 °F 22.6 °F 24.8 °F 80% 29.89 in 10.0 mi West 8.1 mph - N/A   Overcast
1:55 AM 30.2 °F 23.4 °F 24.8 °F 80% 29.88 in 10.0 mi West 6.9 mph - N/A   Overcast
2:15 AM 30.2 °F 22.6 °F 24.8 °F 80% 29.88 in 10.0 mi West 8.1 mph - N/A   Overcast
2:35 AM 30.2 °F 22.6 °F 24.8 °F 80% 29.88 in 10.0 mi WNW 8.1 mph - N/A   Overcast
2:55 AM 30.2 °F 22.6 °F 24.8 °F 80% 29.87 in 10.0 mi West 8.1 mph - N/A   Overcast
3:15 AM 30.2 °F 22.6 °F 24.8 °F 80% 29.86 in 10.0 mi WNW 8.1 mph - N/A   Overcast
3:35 AM 30.2 °F 21.9 °F 24.8 °F 80% 29.85 in 7.0 mi WNW 9.2 mph - N/A   Overcast
3:55 AM 30.2 °F 22.6 °F 24.8 °F 80% 29.85 in 7.0 mi West 8.1 mph - N/A   Overcast
4:15 AM 30.2 °F 23.4 °F 24.8 °F 80% 29.85 in 7.0 mi WNW 6.9 mph - N/A   Overcast
4:35 AM 30.2 °F 24.3 °F 24.8 °F 80% 29.84 in 7.0 mi NW 5.8 mph - N/A   Overcast
4:55 AM 30.2 °F 23.4 °F 24.8 °F 80% 29.84 in 7.0 mi NW 6.9 mph - N/A   Overcast
5:15 AM 30.2 °F 22.6 °F 26.6 °F 86% 29.85 in 7.0 mi NNW 8.1 mph - N/A   Overcast
5:35 AM 30.2 °F 21.3 °F 26.6 °F 86% 29.86 in 10.0 mi North 10.4 mph - N/A   Overcast
5:55 AM 30.2 °F 21.9 °F 26.6 °F 86% 29.86 in 10.0 mi North 9.2 mph - N/A   Overcast
6:15 AM 28.4 °F 18.5 °F 26.6 °F 93% 29.87 in 10.0 mi NNE 11.5 mph - N/A   Overcast
6:35 AM 28.4 °F 19.7 °F 24.8 °F 86% 29.88 in 10.0 mi North 9.2 mph - N/A   Overcast
6:55 AM 28.4 °F 19.1 °F 23.0 °F 80% 29.89 in 10.0 mi North 10.4 mph - N/A   Overcast
7:15 AM 28.4 °F 19.1 °F 23.0 °F 80% 29.90 in 10.0 mi North 10.4 mph 18.4 mph N/A   Overcast
7:35 AM 26.6 °F 16.8 °F 21.2 °F 80% 29.90 in 10.0 mi NNE 10.4 mph - N/A   Overcast
7:55 AM 26.6 °F 16.2 °F 21.2 °F 80% 29.91 in 10.0 mi North 11.5 mph - N/A   Overcast
8:15 AM 26.6 °F 15.7 °F 21.2 °F 80% 29.91 in 10.0 mi NNE 12.7 mph - N/A   Overcast
8:35 AM 26.6 °F 17.5 °F 19.4 °F 74% 29.92 in 10.0 mi North 9.2 mph 16.1 mph N/A   Overcast
8:55 AM 26.6 °F 16.8 °F 19.4 °F 74% 29.91 in 10.0 mi NNE 10.4 mph - N/A   Overcast
9:15 AM 24.8 °F 13.4 °F 17.6 °F 74% 29.91 in 10.0 mi NNE 12.7 mph - N/A   Overcast
9:35 AM 24.8 °F 14.0 °F 17.6 °F 74% 29.91 in 10.0 mi North 11.5 mph 17.3 mph N/A   Overcast
10:55 AM 26.6 °F 16.8 °F 17.6 °F 69% 29.91 in 10.0 mi North 10.4 mph - N/A   Overcast
11:15 AM 26.6 °F 17.5 °F 17.6 °F 69% 29.91 in 10.0 mi North 9.2 mph - N/A   Overcast
11:35 AM 28.4 °F 20.4 °F 17.6 °F 64% 29.91 in 10.0 mi NNE 8.1 mph - N/A   Mostly Cloudy
11:55 AM 28.4 °F 21.2 °F 15.8 °F 59% 29.91 in 10.0 mi North 6.9 mph - N/A   Mostly Cloudy
12:15 PM 28.4 °F 21.2 °F 14.0 °F 55% 29.91 in 10.0 mi NNE 6.9 mph - N/A   Mostly Cloudy
12:35 PM 28.4 °F 19.7 °F 14.0 °F 55% 29.91 in 10.0 mi North 9.2 mph - N/A   Mostly Cloudy
12:55 PM 30.2 °F 22.6 °F 14.0 °F 51% 29.90 in 10.0 mi NE 8.1 mph - N/A   Mostly Cloudy
1:15 PM 30.2 °F 21.9 °F 14.0 °F 51% 29.91 in 10.0 mi NNE 9.2 mph - N/A   Scattered Clouds
1:35 PM 28.4 °F 23.3 °F 14.0 °F 55% 29.91 in 10.0 mi NNW 4.6 mph 10.4 mph N/A   Scattered Clouds
1:55 PM 30.2 °F 24.3 °F 14.0 °F 51% 29.90 in 10.0 mi NNE 5.8 mph - N/A   Scattered Clouds
2:15 PM 28.4 °F 23.3 °F 14.0 °F 55% 29.90 in 10.0 mi NE 4.6 mph - N/A   Mostly Cloudy
2:55 PM 28.4 °F 22.2 °F 12.2 °F 51% 29.88 in 10.0 mi East 5.8 mph - N/A   Scattered Clouds
3:15 PM 28.4 °F 20.4 °F 14.0 °F 55% 29.87 in 10.0 mi NE 8.1 mph - N/A   Scattered Clouds
3:35 PM 28.4 °F 20.4 °F 12.2 °F 51% 29.88 in 10.0 mi NE 8.1 mph - N/A   Scattered Clouds
4:15 PM 28.4 °F 20.4 °F 12.2 °F 51% 29.86 in 10.0 mi ENE 8.1 mph - N/A   Mostly Cloudy
4:35 PM 28.4 °F 22.2 °F 12.2 °F 51% 29.85 in 10.0 mi NE 5.8 mph - N/A   Mostly Cloudy
4:55 PM 28.4 °F 24.6 °F 12.2 °F 51% 29.86 in 10.0 mi NNE 3.5 mph - N/A   Overcast
5:15 PM 28.4 °F 23.3 °F 12.2 °F 51% 29.86 in 10.0 mi North 4.6 mph - N/A   Overcast
5:35 PM 28.4 °F 20.4 °F 12.2 °F 51% 29.86 in 10.0 mi NE 8.1 mph - N/A   Overcast
5:55 PM 28.4 °F 19.1 °F 14.0 °F 55% 29.86 in 10.0 mi NNE 10.4 mph - N/A   Overcast
6:15 PM 26.6 °F 17.5 °F 14.0 °F 59% 29.86 in 7.0 mi NE 9.2 mph - N/A Snow Light Snow
6:55 PM 24.8 °F 14.0 °F 15.8 °F 69% 29.87 in 10.0 mi NE 11.5 mph - N/A   Overcast
7:15 PM 23.0 °F 13.1 °F 14.0 °F 68% 29.87 in 10.0 mi NE 9.2 mph - N/A Snow Light Snow
7:35 PM 21.2 °F 11.7 °F 12.2 °F 68% 29.87 in 10.0 mi ENE 8.1 mph - N/A   Overcast
7:55 PM 21.2 °F 10.1 °F 12.2 °F 68% 29.88 in 3.0 mi ENE 10.4 mph - N/A Snow Light Snow
8:15 PM 19.4 °F 8.6 °F 14.0 °F 80% 29.88 in 3.0 mi ENE 9.2 mph - N/A Snow Light Snow
8:35 PM 19.4 °F 10.4 °F 14.0 °F 80% 29.90 in 3.0 mi NE 6.9 mph - N/A Snow Light Snow
8:55 PM 17.6 °F 5.7 °F 12.2 °F 79% 29.89 in 1.5 mi NE 10.4 mph - N/A Snow Light Snow
9:15 PM 17.6 °F 6.4 °F 12.2 °F 79% 29.89 in 2.5 mi NE 9.2 mph - N/A Snow Light Snow
9:35 PM 17.6 °F 8.2 °F 12.2 °F 79% 29.89 in 2.5 mi ENE 6.9 mph - N/A Snow Light Snow
9:55 PM 15.8 °F 4.2 °F 12.2 °F 86% 29.90 in 5.0 mi NE 9.2 mph - N/A Snow Light Snow
10:15 PM 15.8 °F 3.4 °F 10.4 °F 79% 29.90 in 5.0 mi ENE 10.4 mph - N/A Snow Light Snow
10:35 PM 15.8 °F 5.1 °F 10.4 °F 79% 29.90 in 2.0 mi ENE 8.1 mph - N/A Snow Light Snow
10:55 PM 14.0 °F 2.9 °F 10.4 °F 86% 29.90 in 1.5 mi ENE 8.1 mph - N/A Snow Light Snow
11:15 PM 14.0 °F 2.0 °F 10.4 °F 86% 29.90 in 2.0 mi NE 9.2 mph - N/A Snow Light Snow
11:35 PM 14.0 °F 3.9 °F 10.4 °F 86% 29.89 in 7.0 mi NE 6.9 mph - N/A Snow Light Snow
11:55 PM 14.0 °F 3.9 °F 8.6 °F 79% 29.90 in 4.0 mi NE 6.9 mph - N/A Snow Light Snow